Weather History for Acapulco, Mexico

Change the Weather History Date:

Wednesday, February 20, 2013

  Actual Average Record
Temperature  
Mean Temperature 79 °F -  
Max Temperature 89 °F 88 °F 89 °F (2014)
Min Temperature 69 °F 70 °F 69 °F (2014)
Cooling Degree Days 14    
Growing Degree Days 29 (Base 50)    
Moisture  
Dew Point 72 °F    
Average Humidity 76    
Maximum Humidity 94    
Minimum Humidity 56    
Precipitation  
Precipitation 0.00 in 0.00 in - ()
Sea Level Pressure  
Sea Level Pressure 29.84 in    
Wind  
Wind Speed 5 mph ()    
Max Wind Speed 45 mph    
Max Gust Speed -    
Visibility 8.2 miles    
Events      
Averages and records for this station are not official NWS values.
T = Trace of Precipitation, MM = Missing Value Source: Averaged Metar Reports

Daily Weather History Graph

Daily Weather History Graph

Search for Another Location

Airport:

Trip Planner

Search our weather history database for the weather conditions in past years. The results will help you decide how hot, cold, wet, or windy it might be!

Date:

Astronomy

Feb. 20, 2013 Rise Set
Actual Time 7:02 AM CST 6:43 PM CST
Civil Twilight 6:40 AM CST 7:05 PM CST
Nautical Twilight 6:15 AM CST 7:30 PM CST
Astronomical Twilight 5:49 AM CST 7:55 PM CST
Moon 2:31 PM CST (2/20) 2:58 AM CST (2/20)
Length of Visible Light 12h 24m
Length of Day
11h 41m
Waxing Gibbous, 76% of the Moon is Illuminated
Feb 20
Waxing Gibbous
Feb 25
Full
Mar 4
Last Quarter
Mar 11
New
Mar 19
First Quarter

Hourly Weather History & Observations

Time (CST) Temp. Heat Index Dew Point Humidity Pressure Visibility Wind Dir Wind Speed Gust Speed Precip Events Conditions
12:45 AM 78.8 °F - 71.6 °F 78% 29.88 in 8.0 mi Calm Calm - N/A   Clear
1:45 AM 77.0 °F - 71.6 °F 83% 29.86 in 8.0 mi Calm Calm - N/A   Clear
2:45 AM 77.0 °F - 71.6 °F 83% 29.83 in 8.0 mi Calm Calm - N/A   Clear
2:50 AM 73 °F - 72 °F 94% 29.84 in 6 mi West 15.7 mph - -  
3:45 AM 75.2 °F - 69.8 °F 83% 29.83 in 8.0 mi Calm Calm - N/A   Clear
4:45 AM 75.2 °F - 69.8 °F 83% 29.83 in 8.0 mi Calm Calm - N/A   Clear
5:45 AM 75.2 °F - 68.0 °F 78% 29.89 in 8.0 mi Calm Calm - N/A   Clear
5:50 AM 72 °F - 71 °F 94% 29.83 in 6 mi NW 38.0 mph - -   Clear
6:45 AM 73.4 °F - 68.0 °F 83% 29.85 in 8.0 mi Calm Calm - N/A   Clear
7:43 AM 73.4 °F - 66.2 °F 78% 29.87 in 8.0 mi Calm Calm - N/A   Clear
8:44 AM 77.0 °F - 68.0 °F 74% 29.86 in 8.0 mi Calm Calm - N/A   Clear
8:50 AM 77 °F - 72 °F 82% 29.90 in 12 mi NE 20.1 mph - -   Clear
9:45 AM 78.8 °F - 68.0 °F 69% 29.90 in 8.0 mi Calm Calm - N/A   Clear
10:42 AM 84.2 °F 90.9 °F 73.4 °F 70% 29.90 in 8.0 mi Calm Calm - N/A   Partly Cloudy
11:47 AM 86.0 °F 93.4 °F 73.4 °F 66% 29.85 in 8.0 mi SSW 6.9 mph - N/A   Clear
11:50 AM 86 °F - 72 °F 56% 29.89 in 12 mi SSW 44.7 mph - -   Clear
12:43 PM 87.8 °F 97.6 °F 75.2 °F 66% 29.86 in 8.0 mi SSW 6.9 mph - N/A   Clear
1:45 PM 86.0 °F 96.9 °F 77.0 °F 74% 29.83 in 8.0 mi SW 9.2 mph - N/A   Clear
2:42 PM 87.8 °F 99.7 °F 77.0 °F 70% 29.82 in 8.0 mi SSW 9.2 mph - N/A   Partly Cloudy
2:45 PM 86 °F - 74 °F 61% 29.81 in 12 mi SSW 6.7 mph - -   Scattered Clouds
3:45 PM 86.0 °F 93.4 °F 73.4 °F 66% 29.79 in 8.0 mi SSW 9.2 mph - N/A   Partly Cloudy
4:43 PM 86.0 °F 93.4 °F 73.4 °F 66% 29.78 in 8.0 mi SSW 5.8 mph - N/A   Clear
5:45 PM 84 °F - 72 °F 58% 29.78 in 12 mi SW 6.7 mph - -   Clear
5:45 PM 84.2 °F 92.3 °F 75.2 °F 74% 29.76 in 8.0 mi SSW 5.8 mph - N/A   Clear
6:43 PM 82.4 °F 88.2 °F 73.4 °F 74% 29.79 in 8.0 mi WSW 5.8 mph - N/A   Clear
7:43 PM 80.6 °F 85.4 °F 73.4 °F 79% 29.81 in 8.0 mi WSW 5.8 mph - N/A   Clear
8:45 PM 80.6 °F 85.4 °F 73.4 °F 79% 29.78 in 8.0 mi West 8.1 mph - N/A   Clear
8:50 PM 78 °F - 72 °F 78% 29.84 in 6 mi West 2.2 mph - -  
9:45 PM 80.6 °F 85.4 °F 73.4 °F 79% 29.85 in 8.0 mi Calm Calm - N/A   Clear
10:45 PM 78.8 °F - 73.4 °F 83% 29.85 in 8.0 mi Calm Calm - N/A   Clear
11:45 PM 75 °F - 73 °F 92% 29.86 in 6 mi North 2.2 mph - -  
11:45 PM 77.0 °F - 73.4 °F 89% 29.83 in 8.0 mi Calm Calm - N/A   Clear